BEIDOU-2 IGSO-5

Last updated on Thu Oct 30 2025 00:02:48 GMT+0000 (Coordinated Universal Time)

1 37948U 11073A 25301.89859778 -.00000137 00000+0 00000+0 0 9995 2 37948 48.1055 274.4095 0109172 222.1359 318.2106 1.00256790 50816
UTC large
Height (km)
Speed (km/s)
/
Latitude / Longitude
Inclination (degrees)
Orbital Period (minutes)
Azimuth
Elevation
Range (km)
Doppler Factor

Next 0 passes for location: London (51.5072 / 0.1276)

Sorry there are no passes over London.